Regional Weather Roundup
Issued by NWS Jackson, KY

Home | Current Version | Previous Version | Text Only | Print | Product List | Glossary Off
Versions: 1 2 3 4 5 6 7 8 9 10 11 12 13 14 15 16 17 18 19 20 21 22 23 24 25 26 27 28

000
ASUS43 KJKL 280910
RWRJKL

EAST KENTUCKY HOURLY WEATHER ROUNDUP
NATIONAL WEATHER SERVICE JACKSON KY
500 AM EDT THU JUL 28 2016

NOTE: "FAIR" INDICATES FEW OR NO CLOUDS BELOW 12,000 FEET WITH
NO SIGNIFICANT WEATHER AND/OR OBSTRUCTIONS TO VISIBILITY.

* THESE REPORTS ARE NOT UNDER NWS QUALITY CONTROL AND MAY NOT
  REPORT WEATHER SUCH AS PRECIPITATION AND FOG.

KYZ079-080-083-085-087-088-110-112-115-119-120-281000
...EASTERN KENTUCKY...

CITY           SKY/WX    TMP DP  RH WIND       PRES   REMARKS
JACKSON        MOCLDY    69  68  96 CALM      29.97S FOG
LONDON         PTCLDY    71  67  87 S3        29.97S
SOMERSET*      CLOUDY    70  70 100 CALM      29.97R
MONTICELLO*    MOCLDY   N/A N/A N/A N8        29.97S
WILLIAMSBURG*  PTSUNNY   72  72 100 SE7       29.98S
MIDDLESBORO*   CLOUDY    71  70  96 CALM      30.00S
HARLAN APT*    CLOUDY    68  66  94 CALM      30.01S
PIKE CO APT*     N/A     70  70 100 CALM      29.98S
BIG SANDY APT* CLOUDY    72  71  97 CALM      29.97S
MOREHEAD APT*  CLOUDY    73  70  88 CALM      29.96S
ASHLAND*       CLOUDY    73  72  94 SE5       29.91S
$$

KYZ035-036-041-042-044-050-067-078-099-281000
...CENTRAL KENTUCKY...

CITY           SKY/WX    TMP DP  RH WIND       PRES   REMARKS
MT STERLING*   HVY RAIN  70  70 100 W6        29.99R VSB 1
FLEMING/MASON* LGT RAIN  73  73  98 SW5       29.95R
DANVILLE*      RAIN      72  72 100 NW6       29.96S
LEXINGTON      RAIN      72  70  93 CALM      29.95F FOG
FRANKFORT      RAIN      72  70  93 E8        29.92F
LOUISVILLE     LGT RAIN  76  72  87 SE7       29.90S
LEBANON*         N/A     72  72 100 E3        29.94F
GLASGOW*       MOCLDY    74  74 100 CALM      29.92S
BOWLING GREEN  CLOUDY    76  73  91 S3        29.92S
$$

KYZ091>093-OHZ055-061-077-WVZ005-015-034-035-042-281000
...SOUTHERN OHIO/WEST VIRGINIA...

CITY           SKY/WX    TMP DP  RH WIND       PRES   REMARKS
COVINGTON      TSTM      75  73  94 CALM      29.91S
COLUMBUS       CLOUDY    77  65  66 SE5       29.90S
DAYTON         CLOUDY    72  64  76 CALM      29.91F
WILMINGTON     TSTM      73  71  93 S5        29.92S
HUNTINGTON     MOCLDY    74  72  93 CALM      29.94R
CHARLESTON     CLOUDY    74  71  91 CALM      29.94F
PINEVILLE*     LGT RAIN  72  69  90 MISG      30.05S
BECKLEY        LGT RAIN  70  68  93 S7        30.06F
BLUEFIELD      LGT RAIN  64  63  96 E5        30.05F
LOGAN CO APT*  PTSUNNY   72  72 100 VRB5      29.99R FOG
$$

VAZ002-007-008-TNZ017-027-036-066-071-281000
...SOUTHWEST VIRGINIA/EAST TENNESSEE...

CITY           SKY/WX    TMP DP  RH WIND       PRES   REMARKS
WISE*            N/A     66  64  94 CALM      30.07S
JONESVILLE*      N/A     70  70 100 CALM      30.03S
ABINGDON*      CLOUDY    73  73  99 CALM      30.04S FOG
BRISTOL        CLOUDY    70  68  93 CALM      30.01F
MORRISTOWN*    CLOUDY    75  73  94 CALM      30.00S
SEVIERVILLE*   MOSUNNY   75  66  73 CALM      29.98S
KNOXVILLE      PTCLDY    77  68  73 SW12      29.98S
OAK RIDGE      MOCLDY    79  68  69 S5        29.99F
CROSSVILLE     MOCLDY    72  69  90 S3        30.02F
NASHVILLE      CLOUDY    75  71  87 CALM      29.93F
$$

...KEY TO REMARKS...
VSB - VISIBILITY IN MILES
WCI - WIND CHILL INDEX
HX  - HEAT INDEX

$$




USA.gov is the U.S. government's official web portal to all federal, state and local government web resources and services.